Find Starlink 35403

NORAD ID: 66081 Int'l Des: 2025-235 Owner: SPXS Country: US Constellation: starlink operational
LEOCIRCULAR

当前视图

正在加载3D地球...

About Starlink 35403

Starlink 35403 (NORAD 66081) is a starlink constellation satellite (v2 mini) launched Oct 19, 2025 by SPXS of US. It operates in LEO, CIRCULAR orbit with a mass of 575.00 kg.

关于 Starlink 35403

正在加载描述...

即将过境

Passes for default location (London). Set your location on the main map for personalized predictions.

高度历史

Loading altitude history...

两行轨道根数

1 66081U 25235Z 26166.66229884 .00015384 00000-0 50635-3 0 9997
2 66081 53.1574 149.3315 0000952 94.1820 265.9290 15.31708172 37934
Epoch: Jun 15, 2026 • Age: 14 hours

当前状态

高度 484.2 km
速度 7.62 km/s
星下点 -39.65°S, 18.83°E
发射日期 Oct 19, 2025
运行时间 0.6 years
类型 internet

技术详情

分类 Payload
质量 575.00 kg
干质量 530.00 kg
总质量 575.00 kg
长度 0.30 m
直径 4.10 m
跨度 29.00 m
形状 Box + pan
制造商 SPXS
平台类型 Starlink V2MO
阶段状态 In Orbit
所有者/国家 SPXS/US

Most Searched